Content
SEND FEEDBACK

Daily
Averages
Monthly
Summary
United States of America

DEDEDO, GUAM


Home > North America > United States > Guam
Elevation: 364 feet     Latitude: 13 33N     Longitude: 144 49E

WEATHER
 
SELECT A DAY
Number of Records: 213,786;   Date Range: 1/1/95 - 10/20/14
 
SHARE

PRINT THIS DATA

[ ← Previous Day ]
WEATHER ALMANAC - APRIL 7, 2014
[ Next Day → ]
[ °C ]   °F
Weather ElementAverageHighLow
Temperature83.2 °F89.1 °F (11:54 am)77 °F (1:54 am)
Dewpoint72.8 °F73.9 °F (4:54 pm)71.1 °F (10:54 am)
Humidity71.3 %84 % (1:54 am)55 % (11:54 am)
Barometer29.87 in29.94 in (9:02 am)29.81 in (2:54 pm)
Wind Speed10.7 mph15 mph (11:54 am)
Wind Gust20.7 mph (11:54 am)
Weather ElementAverage
Visibility10 mi
Wind DirectionENE (68.4 °)

Weather ElementTotal
Precipitation---
Cooling Degree Days18.1 (Base 65)
Growing Degree Days33.1 (Base 50)
Averaged from 25 records on April 7, 2014
WEATHER CONDITIONS BREAKOUT
WIND DIRECTION BREAKOUT
WEATHER BY HOUR - APRIL 7, 2014
[ °C ]   °F
Local TimeTemperatureDewpointHumidityBarometerVisibilityWind DirectionWind SpeedGust SpeedPrecipitationEventsConditions
1:54 AM77.0 °F72.0 °F84 %29.88 in10.0 miCalmClear
2:54 AM79.0 °F73.0 °F82 %29.86 in10.0 miEast (80°)8.1 mphClear
3:54 AM79.0 °F73.0 °F82 %29.85 in10.0 miENE (70°)13.8 mphClear
4:54 AM79.0 °F73.0 °F82 %29.86 in10.0 miENE (60°)10.4 mphClear
5:54 AM78.1 °F73.0 °F84 %29.87 in10.0 miENE (60°)6.9 mphClear
6:54 AM80.1 °F73.0 °F79 %29.88 in10.0 miENE (60°)12.7 mphClear
7:54 AM82.9 °F73.0 °F72 %29.90 in10.0 miENE (60°)11.5 mphClear
8:54 AM84.9 °F73.0 °F67 %29.91 in10.0 miNE (50°)12.7 mphScattered Clouds
9:02 AM86.0 °F73.4 °F66 %29.94 in10.0 miNE (50°)11.5 mphMostly Cloudy
9:31 AM84.2 °F73.4 °F70 %29.93 in10.0 miENE (70°)12.7 mphMostly Cloudy
9:54 AM86.0 °F72.0 °F63 %29.91 in10.0 miENE (60°)12.7 mphScattered Clouds
10:54 AM87.1 °F71.1 °F59 %29.89 in10.0 miNE (50°)11.5 mph17.3 mphPartly Cloudy
11:54 AM89.1 °F71.1 °F55 %29.87 in10.0 miEast (80°)15.0 mph20.7 mphScattered Clouds
12:54 PM88.0 °F72.0 °F59 %29.84 in10.0 miEast (80°)10.4 mph18.4 mphScattered Clouds
1:54 PM88.0 °F71.1 °F57 %29.83 in10.0 miEast (100°)11.5 mphClear
2:54 PM87.1 °F72.0 °F61 %29.81 in10.0 miEast (90°)12.7 mphPartly Cloudy
3:54 PM84.9 °F72.0 °F65 %29.81 in10.0 miEast (80°)11.5 mphOvercast
4:54 PM84.9 °F73.9 °F69 %29.82 in10.0 miEast (90°)11.5 mphClear
5:54 PM84.0 °F73.0 °F69 %29.83 in10.0 miEast (80°)13.8 mphPartly Cloudy
6:54 PM82.0 °F73.0 °F74 %29.85 in10.0 miENE (70°)12.7 mphPartly Cloudy
7:54 PM82.0 °F73.0 °F74 %29.86 in10.0 miEast (80°)8.1 mphPartly Cloudy
8:54 PM82.0 °F73.9 °F76 %29.87 in10.0 miENE (70°)9.2 mphPartly Cloudy
9:54 PM82.0 °F73.9 °F76 %29.88 in10.0 miEast (80°)6.9 mphPartly Cloudy
10:54 PM81.0 °F73.9 °F79 %29.88 in10.0 miENE (70°)10.4 mphPartly Cloudy
11:54 PM81.0 °F73.9 °F79 %29.87 in10.0 miENE (70°)8.1 mphPartly Cloudy
Hourly data recorded from PGUM, located miles away from Dededo, Guam







STORIES FROM OUR PARTNERS